sat.trackr.live / text

‹ back to catalog

STARLINK-35855

NORAD 66891 · 2025-283P

PAYLOAD ACTIVE UNKNOWN

§ Identity

Operator
Country
US
Launch date
2025-12-04
Launch site
AFWTR
Launch vehicle
Mass (kg)
RCS (m²)

Purposes: comms

External: N2YO · Heavens-Above · Gunter

§ Orbital elements

Epoch: 2026-05-24T23:16:29.082720Z

Period
94.11 min
Inclination
53.1581°
Eccentricity
0.0000897
Mean motion
15.30204844 rev/d
Perigee alt
474.6 km
Apogee alt
475.8 km
Semi-major
6,853.3 km
B*
3.4502e-4
RAAN
29.8036°
Arg perigee
79.9731°
Mean anomaly
280.1371°
Rev number
2,752

§ Raw data

STARLINK-358551 66891U 25283P   26144.96978105  .00009875  00000+0  34502-3 0  99972 66891  53.1581  29.8036 0000897  79.9731 280.1371 15.30204844 27522

JSON: /api/v1/satellites/66891 · /tle

For live sub-satellite position, see the globe view (requires WebGL).

§ Visibility from observer

Set your observer location to see the next 7 days of passes ≥ 10°. The values pass through the URL so the page stays shareable.

No JS? Fill the form by hand. The geolocation button needs JavaScript.